[[{"header":{"parameterUnit":"m.s-1","parameterCategory":1,"la1":30.2991,"la2":30.254,"lo1":-89.0895,"lo2":-89.0444,"dy":0.0017,"dx":0.0017,"nx":28,"ny":28,"refTime":"2024-05-06T09:00:00:Z","depth":0,"parameterNumber":2,"parameterNumberName":"U-component_of_WINDS"},"data":[0,0,0,0,0,0,0,0,0,0,0,0,0,0,0,0,0,0,0,0,0,0,0,0,0,0,0,0,0,0,0,0,0,0,0,0,0,0,0,0,0,0,0,0,0,0,0,0,0,0,0,0,0,0,0,0,0,0,-2.2037,-2.2037,0,-2.1991,-2.199,-2.199,-2.1928,-2.1927,-2.1925,-2.1925,-2.1875,-2.1874,-2.1874,0,0,0,0,0,0,0,0,0,0,0,0,0,-2.2071,-2.207,-2.2037,-2.2036,-2.2036,-2.1991,-2.199,-2.199,-2.1928,-2.1926,-2.1925,-2.1924,-2.1875,-2.1875,-2.1874,0,0,0,0,0,0,0,0,0,0,0,0,0,-2.2043,-2.207,-2.2037,-2.2,-2.1996,-2.1991,-2.199,-2.1989,-2.1928,-2.1926,-2.1925,-2.1923,-2.1875,-2.1875,-2.1874,-2.1901,0,0,-2.1872,-2.1872,0,0,0,0,0,0,0,0,-2.2045,-2.2042,-2.2006,-2.2002,-2.1998,-2.1963,-2.1984,-2.196,-2.1928,-2.1954,-2.1924,-2.1923,-2.1905,-2.1902,-2.1897,-2.1899,-2.1897,-2.1872,-2.1872,-2.1872,-2.1872,0,0,0,0,0,0,0,-2.2047,-2.2044,-2.2019,-2.2005,-2.2001,-2.1985,-2.1979,-2.1979,-2.1939,-2.1951,-2.1947,-2.1942,-2.1903,-2.1898,-2.1895,-2.1896,-2.1872,-2.1872,-2.1871,-2.1871,-2.1919,-2.1921,0,0,0,0,0,0,-2.2055,-2.2046,-2.202,-2.2017,-2.2018,-2.1985,-2.1979,-2.1976,-2.1939,-2.1931,-2.1944,-2.194,-2.1899,-2.1896,-2.1893,-2.1923,-2.1872,-2.1871,-2.1871,-2.1917,-2.1919,-2.1921,0,0,0,0,0,0,-2.2056,-2.2053,-2.2022,-2.203,-2.2025,-2.1986,-2.1983,-2.1976,-2.197,-2.1933,-2.1925,-2.1946,-2.1898,-2.1894,-2.19,-2.192,-2.1871,-2.187,-2.1916,-2.1918,-2.192,-2.1983,0,0,0,0,0,0,-2.2057,-2.2054,-2.2064,-2.2031,-2.2025,-2.203,-2.1985,-2.1976,-2.197,-2.1964,-2.1932,-2.1926,-2.1896,-2.1901,-2.19,-2.1919,-2.187,-2.1914,-2.1917,-2.192,-2.1979,-2.1987,-2.1994,0,0,0,0,0,-2.2058,-2.2083,-2.2065,-2.2062,-2.2037,-2.2032,-2.2028,-2.1994,-2.1972,-2.1982,-2.1958,-2.1927,-2.1919,-2.1902,-2.19,-2.1919,-2.1912,-2.1916,-2.1919,-2.1975,-2.1985,-2.1994,0,0,0,0,0,0,-2.2118,-2.2078,-2.2057,-2.2072,-2.2056,-2.2021,-2.2032,-2.2006,-2.1995,-2.199,-2.1948,-2.1942,-2.1953,-2.1937,-2.1919,-2.1944,-2.1911,-2.1914,-2.1954,-2.1964,-2.1971,-2.1975,-2.187,0,0,0,0,0,-2.2133,-2.2133,-2.2097,-2.2114,-2.2107,-2.2071,-2.2068,-2.2043,-2.2024,-2.2017,-2.1993,-2.1976,-2.1969,-2.1965,-2.1957,-2.1976,-2.1969,-2.1989,-2.1996,-2.2003,-2.2006,-2.2015,-2.2024,-2.1933,-2.1933,-2.1933,0,0,-2.2164,-2.2142,-2.2144,-2.2125,-2.211,-2.211,-2.2066,-2.2067,-2.2067,-2.2017,-2.2021,-2.2004,-2.1981,-2.1994,-2.1999,-2.1981,-2.203,-2.2007,-2.2013,-2.2012,-2.202,-2.2028,-2.2036,-2.1935,-2.1935,-2.1935,0,0,-2.222,-2.2204,-2.2216,-2.2201,-2.2179,-2.2155,-2.2159,-2.2128,-2.2115,-2.2119,-2.2081,-2.208,-2.207,-2.2055,-2.2047,-2.2099,-2.207,-2.2097,-2.2137,-2.2147,-2.2154,-2.216,-2.2179,-2.2186,-2.2101,-2.2101,-2.2101,0,-2.2261,-2.226,-2.2225,-2.2229,-2.2222,-2.2178,-2.219,-2.2178,-2.2154,-2.2149,-2.213,-2.2117,-2.2099,-2.2108,-2.2121,-2.2115,-2.2117,-2.21,-2.2156,-2.2162,-2.2167,-2.2184,-2.2191,-2.2104,-2.2104,-2.2104,-2.2103,0,-2.2311,-2.2311,-2.2324,-2.2303,-2.2297,-2.2305,-2.2271,-2.2269,-2.2246,-2.2224,-2.2229,-2.2206,-2.2193,-2.2193,-2.217,-2.2199,-2.2189,-2.2164,-2.2129,-2.218,-2.2195,-2.2201,-2.2109,-2.2108,-2.2107,-2.2106,0,0,-2.2403,-2.2363,-2.2368,-2.2358,-2.2331,-2.233,-2.2336,-2.2324,-2.2324,-2.2309,-2.2313,-2.2306,-2.2282,-2.2273,-2.2247,-2.2256,-2.2299,-2.2229,-2.2228,-2.2243,-2.233,-2.2349,-2.2357,-2.228,-2.2281,-2.2282,-2.2332,0,-2.2453,-2.2462,-2.2431,-2.2448,-2.2448,-2.2406,-2.2412,-2.2396,-2.2376,-2.2372,-2.235,-2.2346,-2.2315,-2.2309,-2.2316,-2.2293,-2.2316,-2.2288,-2.2283,-2.2283,-2.2289,-2.2365,-2.2386,-2.2433,-2.2338,-2.2339,-2.2339,0,-2.2513,-2.2503,-2.252,-2.2492,-2.2491,-2.2496,-2.2483,-2.2481,-2.2461,-2.2446,-2.2437,-2.2408,-2.2412,-2.238,-2.2384,-2.2366,-2.2362,-2.2351,-2.2352,-2.2349,-2.2314,-2.2365,-2.2448,-2.2455,-2.2349,-2.2348,-2.2347,0,-2.2578,-2.2568,-2.2577,-2.257,-2.2538,-2.2543,-2.253,-2.2509,-2.2504,-2.2493,-2.2489,-2.2478,-2.2472,-2.2463,-2.2432,-2.2412,-2.2441,-2.2406,-2.2428,-2.2429,-2.2435,-2.2435,-2.2519,-2.2434,-2.2434,-2.2433,-2.2433,0,-2.2638,-2.265,-2.2606,-2.2612,-2.2624,-2.2588,-2.2601,-2.2584,-2.2566,-2.2567,-2.2531,-2.2533,-2.2492,-2.2489,-2.2465,-2.2472,-2.247,-2.2457,-2.2451,-2.2461,-2.2462,-2.2457,-2.2453,-2.2435,-2.2435,-2.2434,-2.2434,0,-2.2712,-2.2684,-2.2691,-2.266,-2.2653,-2.2664,-2.2637,-2.2641,-2.2619,-2.2621,-2.262,-2.2586,-2.2581,-2.2549,-2.2537,-2.252,-2.2537,-2.2523,-2.2543,-2.2539,-2.2563,-2.2561,-2.2645,-2.2655,-2.2565,-2.2565,-2.2566,0,-2.2752,-2.276,-2.2731,-2.273,-2.2719,-2.2717,-2.2712,-2.2677,-2.2674,-2.2653,-2.2659,-2.2651,-2.2643,-2.2637,-2.2611,-2.2601,-2.2587,-2.2617,-2.2585,-2.2595,-2.2587,-2.2587,-2.2588,-2.2624,-2.2625,-2.2626,-2.2627,0,-2.2826,-2.2811,-2.2806,-2.2796,-2.2791,-2.2782,-2.2769,-2.277,-2.2732,-2.273,-2.2725,-2.2718,-2.2706,-2.2699,-2.2685,-2.267,-2.2643,-2.2638,-2.2642,-2.2652,-2.2663,-2.2657,-2.2562,-2.2636,-2.2635,-2.2634,-2.2634,-2.2633,-2.2884,-2.289,-2.287,-2.2866,-2.2853,-2.2843,-2.2845,-2.2825,-2.282,-2.2808,-2.2788,-2.2786,-2.2766,-2.2745,-2.2733,-2.2731,-2.2714,-2.2721,-2.2722,-2.2725,-2.273,-2.2664,-2.2728,-2.2728,-2.2727,-2.2727,-2.2727,0,-2.2956,-2.2941,-2.2938,-2.2922,-2.2919,-2.2894,-2.2879,-2.2878,-2.2877,-2.2862,-2.2855,-2.2849,-2.2842,-2.2816,-2.2806,-2.2809,-2.2796,-2.2808,-2.2807,-2.2804,-2.2745,-2.2742,-2.2818,-2.2818,-2.2818,-2.2818,-2.2818,-2.2818,-2.2992,-2.3001,-2.2985,-2.2987,-2.2972,-2.297,-2.2964,-2.2955,-2.2943,-2.2938,-2.2933,-2.2916,-2.2896,-2.2885,-2.2877,-2.287,-2.2868,-2.2884,-2.2872,-2.2817,-2.2808,-2.28,-2.2797,-2.2884,-2.2884,-2.2931,-2.2932,-2.2932]},{"header":{"parameterUnit":"m.s-1","parameterCategory":1,"la1":30.2991,"la2":30.254,"lo1":-89.0895,"lo2":-89.0444,"dy":0.0017,"dx":0.0017,"nx":28,"ny":28,"refTime":"2024-05-06T09:00:00:Z","depth":0,"parameterNumber":3,"parameterNumberName":"V-component_of_WINDS"},"data":[0,0,0,0,0,0,0,0,0,0,0,0,0,0,0,0,0,0,0,0,0,0,0,0,0,0,0,0,0,0,0,0,0,0,0,0,0,0,0,0,0,0,0,0,0,0,0,0,0,0,0,0,0,0,0,0,0,0,4.5302,4.5303,0,4.5386,4.5387,4.5388,4.5384,4.5382,4.5381,4.538,4.5461,4.5465,4.5468,0,0,0,0,0,0,0,0,0,0,0,0,0,4.5133,4.5137,4.5302,4.5303,4.5304,4.5386,4.5387,4.5389,4.5384,4.5382,4.5381,4.5379,4.546,4.5464,4.5468,0,0,0,0,0,0,0,0,0,0,0,0,0,4.5211,4.5138,4.5302,4.5312,4.5314,4.5386,4.5387,4.5389,4.5384,4.5382,4.538,4.5379,4.5459,4.5464,4.5469,4.5535,0,0,4.5484,4.5486,0,0,0,0,0,0,0,0,4.5206,4.5217,4.531,4.5312,4.5314,4.5373,4.5358,4.5438,4.5385,4.5357,4.538,4.5378,4.5433,4.544,4.546,4.5539,4.5542,4.5484,4.5487,4.5489,4.5491,0,0,0,0,0,0,0,4.5201,4.5213,4.5335,4.5311,4.5313,4.5311,4.532,4.5373,4.5404,4.5359,4.5359,4.537,4.5434,4.5455,4.5461,4.5544,4.5484,4.5488,4.5491,4.5493,4.5681,4.5683,0,0,0,0,0,0,4.5194,4.5209,4.5333,4.5338,4.5255,4.5315,4.5325,4.5355,4.5403,4.5409,4.5371,4.5369,4.5447,4.5456,4.5464,4.5545,4.5489,4.5494,4.5497,4.5679,4.5682,4.5684,0,0,0,0,0,0,4.5191,4.5205,4.5329,4.5274,4.5289,4.532,4.5354,4.5358,4.5379,4.5412,4.5417,4.5387,4.5446,4.5457,4.5518,4.5548,4.5496,4.5501,4.5677,4.568,4.5683,4.5707,0,0,0,0,0,0,4.5186,4.5204,4.5231,4.5274,4.5292,4.5383,4.5356,4.5361,4.5388,4.5386,4.5429,4.5434,4.5446,4.551,4.5523,4.5553,4.5504,4.5674,4.5678,4.5682,4.5703,4.571,4.5716,0,0,0,0,0,4.518,4.5233,4.5232,4.5247,4.5326,4.5385,4.5395,4.5408,4.5391,4.5417,4.5438,4.5433,4.5543,4.5517,4.553,4.5563,4.5672,4.5677,4.5681,4.5701,4.5709,4.5716,0,0,0,0,0,0,4.5191,4.5239,4.5238,4.5308,4.5342,4.5384,4.5417,4.5417,4.5456,4.5452,4.5466,4.5476,4.5536,4.5556,4.5526,4.563,4.5605,4.5612,4.5615,4.5623,4.5629,4.5623,4.5508,0,0,0,0,0,4.5201,4.5246,4.5286,4.5343,4.536,4.5386,4.5412,4.542,4.5455,4.5469,4.5495,4.5529,4.5571,4.5598,4.5639,4.5707,4.5715,4.5736,4.5742,4.5747,4.5753,4.579,4.5799,4.5699,4.5699,4.5699,0,0,4.5223,4.5255,4.5283,4.5346,4.5374,4.5418,4.5398,4.5446,4.5479,4.5476,4.5535,4.5555,4.5593,4.5658,4.5688,4.5676,4.5783,4.5753,4.5757,4.576,4.5796,4.5805,4.5813,4.5702,4.5701,4.5701,0,0,4.5286,4.5316,4.5367,4.5395,4.5438,4.5455,4.5467,4.5509,4.5522,4.5582,4.5581,4.5619,4.5692,4.5719,4.5743,4.5816,4.5812,4.5829,4.5862,4.5898,4.5905,4.5912,4.5938,4.5947,4.5835,4.5835,4.5835,0,4.5308,4.5377,4.5392,4.5441,4.5469,4.547,4.5521,4.5547,4.56,4.5618,4.5605,4.5696,4.5722,4.5793,4.5811,4.583,4.5843,4.5824,4.5903,4.5911,4.5917,4.5942,4.5952,4.5837,4.5837,4.5837,4.5836,0,4.5401,4.5448,4.5484,4.5537,4.5569,4.5618,4.564,4.567,4.5675,4.5692,4.5753,4.5784,4.5831,4.5848,4.5853,4.592,4.5911,4.5901,4.5876,4.5928,4.5952,4.5961,4.5839,4.5839,4.5838,4.5838,0,0,4.5472,4.5534,4.5547,4.5571,4.5618,4.5655,4.5704,4.5751,4.5776,4.5813,4.5853,4.5915,4.5906,4.5932,4.594,4.5971,4.6027,4.5957,4.5958,4.5968,4.6101,4.6108,4.6119,4.6025,4.6027,4.6028,4.6098,0,4.554,4.5628,4.5644,4.5721,4.5764,4.5766,4.5809,4.5842,4.586,4.5898,4.5917,4.5961,4.5946,4.5962,4.5993,4.6014,4.6054,4.6009,4.6062,4.6063,4.6051,4.6131,4.6139,4.6203,4.6107,4.6109,4.611,0,4.563,4.5671,4.5752,4.5794,4.5813,4.5851,4.5896,4.5933,4.597,4.5981,4.6011,4.6015,4.6065,4.6039,4.6106,4.6076,4.6098,4.6112,4.6114,4.6119,4.6089,4.6137,4.6224,4.6233,4.6124,4.6123,4.6122,0,4.5673,4.5748,4.5807,4.5827,4.5877,4.5904,4.5926,4.5961,4.5989,4.6027,4.6045,4.6088,4.6112,4.6144,4.616,4.614,4.6226,4.6202,4.6235,4.6235,4.6253,4.6251,4.6343,4.6269,4.6269,4.6269,4.6268,0,4.5746,4.5796,4.5827,4.5863,4.5918,4.5935,4.5989,4.601,4.6041,4.608,4.6084,4.612,4.6139,4.6178,4.619,4.6244,4.6254,4.6263,4.6266,4.6263,4.6261,4.6277,4.6272,4.6271,4.6271,4.627,4.627,0,4.5803,4.5826,4.589,4.5933,4.5945,4.5983,4.6019,4.6053,4.6072,4.6121,4.6133,4.6161,4.6207,4.6226,4.6281,4.629,4.6351,4.6351,4.6339,4.634,4.6372,4.6369,4.6477,4.6491,4.6408,4.6409,4.6409,0,4.5848,4.5887,4.5934,4.5961,4.5984,4.6028,4.6056,4.6074,4.6103,4.6148,4.6177,4.6223,4.6261,4.6333,4.6358,4.64,4.64,4.6435,4.6406,4.6402,4.64,4.6397,4.64,4.644,4.6441,4.6441,4.6442,0,4.5925,4.5935,4.5976,4.6022,4.6056,4.6092,4.6128,4.6149,4.6173,4.6205,4.6253,4.6282,4.634,4.6385,4.6429,4.645,4.6449,4.6451,4.6461,4.6457,4.6449,4.6453,4.6353,4.6448,4.6447,4.6447,4.6447,4.6446,4.5977,4.6011,4.605,4.6096,4.6125,4.6158,4.6192,4.6215,4.6256,4.6305,4.6313,4.6363,4.6399,4.6458,4.6481,4.652,4.651,4.6525,4.6529,4.6532,4.6533,4.6444,4.6528,4.6527,4.6527,4.6527,4.6527,0,4.6053,4.6079,4.6121,4.6171,4.6207,4.6206,4.6245,4.6274,4.6319,4.6353,4.6391,4.6445,4.6489,4.6517,4.6561,4.6587,4.6588,4.6598,4.6596,4.66,4.6539,4.6526,4.6596,4.6596,4.6596,4.6596,4.6596,4.6596,4.6097,4.6155,4.6169,4.6241,4.6265,4.6316,4.6338,4.6369,4.6396,4.6457,4.6494,4.6512,4.6544,4.659,4.663,4.6637,4.6653,4.6663,4.6669,4.6612,4.6605,4.6598,4.6585,4.6667,4.6667,4.6727,4.6728,4.6728]}]]